GW2402 Weather Reports


time (UTC)temp
F
wind
direction
speed
knots
gust
knots
rain 1hr
in
rain 24hr
in
rain mn
in
humidity
%
barometer
mb
20260506234549 66 27 0.0 2.6 0.00 0.00 0.00 78 1012.3
20260506233103 66 289 0.0 2.6 0.00 0.00 0.00 77 1012.2
20260506231547 66 266 0.0 2.6 0.00 0.00 0.00 76 1012.1
20260506230050 67 112 0.0 2.6 0.00 0.00 0.00 75 1012.1
20260506224544 68 0 0.0 2.6 0.00 0.00 0.00 75 1011.9
20260506223050 69 0 0.0 1.7 0.00 0.00 0.00 73 1011.8
20260506221555 69 0 0.9 5.2 0.00 0.00 0.00 73 1011.7
20260506220050 70 93 1.7 7.8 0.00 0.00 0.00 72 1011.8
20260506214551 70 103 0.9 4.3 0.00 0.00 0.00 71 1011.6
20260506213046 73 0 0.0 3.5 0.00 0.00 0.00 70 1011.4
20260506211545 73 0 0.9 5.2 0.00 0.00 0.00 70 1011.3
20260506210044 73 108 0.0 1.7 0.00 0.00 0.00 72 1011.3
20260506204549 73 151 0.9 4.3 0.00 0.00 0.00 72 1011.9
20260506203049 73 291 0.0 2.6 0.00 0.00 0.00 74 1011.7
20260506201547 74 229 1.7 6.1 0.00 0.00 0.00 72 1011.5
20260506200049 77 0 0.0 1.7 0.00 0.00 0.00 73 1011.0
20260506194553 78 0 0.0 0.9 0.00 0.00 0.00 73 1011.0
20260506193049 78 98 0.0 1.7 0.00 0.00 0.00 73 1010.9
20260506191549 78 243 0.0 1.7 0.00 0.00 0.00 75 1011.1
20260506190046 77 0 0.0 2.6 0.00 0.00 0.00 76 1011.2
20260506184544 76 0 0.0 2.6 0.00 0.00 0.00 77 1010.9
20260506183049 76 280 0.0 1.7 0.00 0.00 0.00 77 1011.3
20260506181547 74 0 0.0 2.6 0.00 0.00 0.00 77 1011.3
20260506180047 73 266 0.0 0.0 0.00 0.00 0.00 80 1011.5
20260506174548 72 0 0.0 1.7 0.00 0.00 0.00 79 1011.5
20260506173104 72 100 0.0 1.7 0.00 0.00 0.00 80 1011.5
20260506171548 71 0 0.0 0.9 0.00 0.00 0.00 82 1011.4
20260506170056 69 290 0.0 0.9 0.00 0.00 0.00 83 1011.7
20260506164609 67 252 0.0 0.9 0.00 0.00 0.00 88 1012.0
20260506163047 67 257 0.9 3.5 0.00 0.00 0.00 86 1012.7
20260506161542 69 260 0.0 2.6 0.00 0.00 0.00 85 1012.6
20260506160104 74 88 0.9 5.2 0.00 0.00 0.00 81 1012.3
20260506154550 77 0 0.0 0.0 0.00 0.00 0.00 89 1011.5
20260506153042 77 0 0.0 0.0 0.00 0.00 0.00 90 1011.1
20260506151543 77 0 0.0 0.0 0.00 0.00 0.00 90 1010.8
20260506150049 77 0 0.0 0.0 0.00 0.00 0.00 90 1010.4
20260506144547 76 0 0.0 0.0 0.00 0.00 0.00 91 1010.2
20260506143050 76 0 0.0 0.0 0.00 0.00 0.00 91 1009.9
20260506141604 76 0 0.0 0.0 0.00 0.00 0.00 91 1010.0
20260506140047 76 0 0.0 0.0 0.00 0.00 0.00 91 1009.8
20260506134542 76 0 0.0 0.0 0.00 0.00 0.00 91 1009.4
20260506133048 76 0 0.0 0.0 0.00 0.00 0.00 92 1009.2
20260506131548 75 0 0.0 0.0 0.00 0.00 0.00 92 1009.1
20260506130047 75 0 0.0 0.0 0.00 0.00 0.00 92 1009.1
20260506124547 75 0 0.0 0.0 0.00 0.00 0.00 92 1009.0
20260506123046 75 0 0.0 0.0 0.00 0.00 0.00 92 1009.0
20260506121548 75 0 0.0 0.0 0.00 0.00 0.00 92 1008.9
20260506120115 75 0 0.0 0.0 0.00 0.00 0.00 92 1008.8
20260506114550 75 0 0.0 0.0 0.00 0.00 0.00 92 1008.9
20260506113047 75 0 0.0 0.0 0.00 0.00 0.00 92 1008.7
20260506111552 75 0 0.0 0.0 0.00 0.00 0.00 92 1008.7
20260506110049 75 0 0.0 0.0 0.00 0.00 0.00 92 1008.7
20260506104548 75 0 0.0 0.9 0.00 0.00 0.00 92 1008.8
20260506103053 75 0 0.0 0.0 0.00 0.00 0.00 92 1008.5
20260506101548 75 0 0.0 0.0 0.00 0.00 0.00 92 1008.3
20260506100045 75 0 0.0 0.9 0.00 0.00 0.00 92 1008.1
20260506094547 75 0 0.0 0.9 0.00 0.00 0.00 91 1007.9
20260506093047 75 0 0.0 0.0 0.00 0.00 0.00 91 1007.7
20260506091543 75 272 0.0 0.9 0.00 0.00 0.00 90 1007.5
20260506090047 75 0 0.0 0.0 0.00 0.00 0.00 90 1007.5
20260506084546 75 330 0.0 0.0 0.00 0.00 0.00 90 1007.6
20260506083051 75 0 0.0 0.0 0.00 0.00 0.00 90 1007.7
20260506081548 75 0 0.0 0.9 0.00 0.00 0.00 90 1007.6
20260506073053 76 0 0.0 3.5 0.00 0.00 0.00 90 1008.0
20260506071551 75 17 0.0 3.5 0.00 0.00 0.00 90 1008.2
20260506070105 75 289 0.0 1.7 0.00 0.00 0.00 91 1008.2
20260506061547 76 0 0.0 0.9 0.00 0.00 0.00 90 1008.2
20260506044554 77 269 0.0 1.7 0.00 0.00 0.00 88 1008.3
20260506043045 77 264 0.0 0.9 0.00 0.00 0.00 87 1008.3
20260506041553 77 0 0.0 1.7 0.00 0.00 0.00 87 1008.0
20260506040043 77 0 0.0 0.9 0.00 0.00 0.00 87 1007.9
20260506034547 77 263 0.0 0.9 0.00 0.00 0.00 87 1007.8
20260506033045 77 0 0.0 0.0 0.00 0.00 0.00 86 1007.7
20260506031555 78 0 0.0 0.9 0.00 0.00 0.00 85 1007.5
20260506030055 78 0 0.0 0.9 0.00 0.00 0.00 85 1007.1
20260506024539 79 0 0.0 0.9 0.00 0.00 0.00 84 1006.8
20260506023047 79 0 0.0 0.9 0.00 0.00 0.00 83 1006.5
20260506021542 79 0 0.0 0.9 0.00 0.00 0.00 82 1006.4
20260506020038 80 0 0.0 0.0 0.00 0.00 0.00 81 1006.1
20260506014546 80 0 0.0 0.0 0.00 0.00 0.00 80 1005.9
20260506013049 81 0 0.0 0.0 0.00 0.00 0.00 80 1005.8
20260506011555 81 0 0.0 0.0 0.00 0.00 0.00 78 1005.9
20260506010041 82 0 0.0 0.0 0.00 0.00 0.00 78 1005.9
20260506004606 82 0 0.0 0.0 0.00 0.00 0.00 77 1005.6
20260506003046 82 0 0.0 0.0 0.00 0.00 0.00 76 1005.7
20260506001544 83 0 0.0 0.9 0.00 0.00 0.00 76 1005.5
20260506000045 83 0 0.0 0.9 0.00 0.00 0.00 75 1005.5